Theta_e
327 328 330 331 326 324 323 321 319 320 329 339 331 324 330 329 320 322 333 343 352 351 347 351 352 350 350 351 354 356 355 353 352 352 351 348 348 347 345 345 345 340 335 334 337 338 337 336 336 336 335 334 334 334 333 333 333 332 330 330 331 332 332
325 326 329 331 325 328 328 319 321 325 324 333 332 324 329 327 321 329 337 346 352 341 337 354 359 355 353 351 352 355 353 352 351 350 349 348 347 345 344 344 341 337 333 334 336 337 336 336 336 335 335 334 334 335 335 334 334 333 332 331 332 333 333
328 335 332 328 326 327 327 324 326 323 319 323 323 322 327 321 318 329 334 341 347 340 345 364 368 364 359 351 350 353 352 351 349 349 348 347 346 345 343 343 342 337 333 333 336 336 336 335 336 336 334 334 335 334 335 335 335 334 333 333 333 333 332
326 335 332 325 325 322 324 329 329 327 330 329 322 322 326 321 321 327 330 337 344 349 362 374 371 369 358 350 351 352 350 349 348 348 347 346 345 344 343 342 343 339 333 333 336 335 336 336 335 336 334 334 335 335 335 336 335 335 334 334 334 333 331
323 328 329 328 330 327 324 325 325 326 328 325 322 321 324 326 329 331 331 329 334 350 366 372 372 366 351 349 352 349 347 348 346 346 346 345 344 343 341 342 341 337 332 334 335 334 335 336 336 336 335 335 336 336 336 337 335 335 334 334 333 332 331
320 328 332 329 329 331 330 326 324 327 325 322 322 320 322 326 328 333 334 323 327 351 361 362 365 357 346 347 348 347 348 347 345 345 344 344 344 342 341 341 339 335 332 333 334 334 336 337 336 336 336 337 337 337 337 337 335 335 334 334 333 331 330
331 331 329 325 325 330 333 330 328 330 331 330 325 322 324 323 319 329 333 321 329 352 356 353 356 350 346 346 345 348 347 345 344 344 343 343 343 341 339 339 337 332 332 333 333 334 335 337 337 336 337 337 337 337 337 336 336 335 334 334 332 331 329
352 338 332 331 331 332 330 329 330 330 331 333 333 335 334 324 318 325 325 320 330 348 353 353 352 346 348 346 345 347 345 344 344 342 344 344 342 341 340 338 336 331 331 332 332 334 336 336 337 337 337 338 337 338 338 336 336 334 333 333 332 330 329
339 334 332 333 335 337 334 335 332 332 334 332 330 333 329 322 324 327 322 322 333 349 356 357 353 346 348 346 343 345 344 345 344 342 343 342 340 341 341 340 340 336 333 332 332 334 336 336 337 337 337 338 338 338 338 336 335 333 332 332 332 331 330
324 323 324 330 337 336 333 337 333 329 334 330 328 327 320 320 327 327 326 329 334 347 357 355 353 350 349 348 342 341 343 345 344 343 341 340 340 341 341 342 343 341 336 332 332 334 336 336 338 337 337 338 338 338 337 337 335 331 330 331 333 332 330
323 329 335 341 347 336 326 332 332 331 334 332 333 330 321 327 331 328 338 340 326 333 352 356 360 353 347 349 345 341 343 344 343 342 338 339 340 339 341 342 341 340 338 334 332 334 336 336 337 337 338 338 338 338 337 336 334 330 329 331 332 332 331
330 344 350 347 343 334 332 334 330 331 336 332 330 327 326 333 328 325 352 357 326 326 347 356 363 359 347 346 344 340 341 342 342 341 339 340 340 339 341 342 341 342 341 337 332 332 335 336 336 338 338 337 337 338 337 336 333 330 328 329 332 332 331
341 344 343 344 340 334 338 339 332 332 336 330 328 335 340 337 324 324 351 358 337 334 345 347 353 356 348 345 343 340 342 342 340 340 340 341 340 341 342 342 341 341 342 339 332 331 334 335 336 338 337 337 338 337 336 335 332 330 329 329 330 331 331
335 339 338 339 335 330 332 336 336 334 334 332 329 338 345 337 329 333 343 345 343 340 340 338 342 344 343 342 344 343 343 343 341 340 341 341 339 341 342 342 340 338 340 337 331 332 334 334 336 338 336 337 337 336 336 334 331 330 329 330 330 329 330
326 336 338 334 333 332 330 332 341 338 331 331 329 333 339 335 334 341 338 336 343 342 338 340 341 342 343 342 341 342 341 341 340 339 340 340 339 340 341 340 338 337 339 335 330 332 334 334 336 336 335 336 336 336 335 333 331 330 330 331 330 329 328
323 331 332 334 337 334 327 330 341 340 333 332 331 333 341 339 336 339 333 331 343 348 346 345 343 342 342 341 340 341 340 340 340 340 340 340 339 340 340 339 338 338 339 336 331 332 333 335 336 335 334 335 335 335 334 332 330 329 329 331 330 329 328
327 335 336 338 334 326 326 335 344 344 339 338 334 334 345 345 335 333 330 333 345 353 348 350 350 344 341 340 340 339 338 339 339 338 339 339 340 341 340 339 338 338 336 333 331 332 334 335 334 333 334 334 334 333 331 330 331 329 329 330 329 330 329
330 341 339 334 326 324 332 347 352 346 338 339 336 333 343 347 340 339 339 338 348 354 351 353 352 346 341 339 335 335 337 337 338 338 338 338 340 341 338 337 338 335 332 331 331 333 334 333 332 333 334 333 333 332 331 330 330 329 329 330 329 330 330
333 335 334 327 327 336 349 353 350 343 335 336 338 339 347 348 343 346 345 339 344 350 346 344 342 338 338 337 335 335 335 335 336 337 337 338 341 340 337 338 337 332 329 330 331 333 333 332 333 333 333 333 333 332 331 332 331 330 331 330 330 330 330
332 330 329 329 334 348 354 346 342 338 333 332 332 334 351 359 351 350 350 347 348 346 341 342 340 336 338 339 336 335 336 336 334 335 337 338 339 339 337 336 334 330 329 331 332 333 332 331 332 333 332 333 332 332 332 332 331 332 332 331 331 331 331
337 337 333 332 333 336 340 339 341 339 336 340 338 331 344 367 361 351 355 359 354 345 342 342 340 338 342 344 338 336 337 337 335 334 336 335 334 335 333 331 332 330 331 333 332 331 331 331 332 332 332 332 333 332 332 332 332 333 332 332 332 332 331
341 341 332 329 327 329 340 350 350 342 337 348 349 332 339 365 362 346 351 360 355 349 344 341 340 343 351 354 348 340 337 338 336 335 333 329 328 330 329 329 330 330 331 333 331 331 331 331 331 331 331 332 333 333 332 332 332 332 333 333 332 332 332
337 331 325 329 328 329 345 356 349 341 336 344 343 329 334 362 363 344 345 354 353 349 344 341 343 346 352 360 355 343 338 338 336 336 335 329 326 328 329 329 330 331 332 332 331 331 332 332 331 331 332 333 333 333 333 333 332 333 333 333 331 331 330
334 329 327 332 330 331 348 357 347 340 336 336 331 324 333 361 363 344 345 352 351 346 341 340 343 347 356 361 353 343 340 338 334 334 335 331 327 326 328 329 331 332 332 332 332 332 333 332 331 331 332 333 334 334 333 332 333 333 332 330 327 327 327
335 331 327 328 330 339 353 354 344 338 332 327 324 325 338 362 362 344 343 348 344 339 340 341 342 345 351 351 346 342 341 338 336 331 327 326 327 328 329 331 330 332 332 332 332 332 332 331 331 332 333 334 333 334 333 333 334 332 328 326 325 325 326
333 335 332 327 332 343 346 340 337 333 325 324 333 337 342 354 360 348 340 341 339 336 337 340 343 345 346 343 345 347 344 343 345 337 327 327 329 328 329 331 331 330 331 331 332 332 332 331 333 333 333 333 333 333 334 333 330 327 325 325 325 325 326
330 332 331 327 333 341 334 329 332 331 326 335 351 349 342 345 353 347 338 339 339 335 336 340 347 352 349 345 345 344 341 343 344 338 331 329 329 327 328 330 331 331 331 330 331 332 332 332 332 333 333 333 333 333 332 329 326 325 326 326 326 326 326
328 328 332 335 341 343 335 332 337 338 340 347 354 351 347 344 342 340 339 338 336 334 336 343 348 349 346 344 342 341 340 341 341 338 333 328 327 328 329 329 331 331 330 330 331 331 331 332 333 334 334 332 330 329 327 326 326 326 327 327 326 326 325
335 338 340 341 342 340 333 335 343 346 343 341 340 343 347 344 338 338 338 338 335 333 337 343 344 344 346 345 343 342 342 341 340 337 333 327 326 327 327 328 330 332 331 330 330 330 331 332 332 333 332 329 328 326 326 326 326 327 327 327 327 326 325
339 336 335 335 338 341 338 336 337 338 338 337 334 335 338 339 339 338 336 338 340 335 337 344 344 343 349 348 344 343 346 345 341 335 330 327 326 326 327 327 329 331 332 330 329 330 330 331 332 332 329 327 326 326 325 326 327 327 327 327 326 325 325
332 334 340 338 336 338 339 336 335 333 336 341 340 337 340 343 343 341 338 339 340 336 339 346 344 343 349 349 346 350 354 355 353 345 332 326 325 325 326 327 329 331 331 329 328 329 330 331 331 330 328 327 326 326 326 326 327 327 327 326 324 323 323
332 337 342 338 335 337 337 336 337 336 337 344 343 339 342 343 340 338 337 336 336 336 339 345 345 347 351 350 347 351 356 359 361 346 328 320 322 324 325 327 330 331 330 329 329 329 330 331 330 328 327 327 326 327 327 327 326 326 326 325 322 322 322
336 338 336 334 336 342 343 339 338 335 335 340 339 333 333 337 337 337 337 336 336 337 341 348 349 346 349 354 354 353 358 363 355 335 322 320 321 322 324 327 330 331 330 329 329 329 329 329 329 327 327 327 327 327 327 327 326 326 325 323 322 322 322
335 340 342 339 334 340 349 345 337 332 331 334 336 333 332 335 337 337 338 338 336 334 335 341 347 347 349 352 356 356 357 352 338 324 320 322 323 323 325 328 329 328 328 327 327 328 328 328 327 328 328 328 328 328 326 326 326 325 325 323 322 322 321
331 332 336 338 333 338 350 345 336 332 329 330 335 336 333 335 335 336 339 338 337 337 333 327 334 352 358 346 344 351 345 331 324 323 323 323 324 324 326 328 328 326 326 326 326 326 327 327 327 328 328 328 327 327 326 326 326 325 324 324 323 322 321
329 325 326 330 329 333 341 339 336 336 332 330 332 332 332 334 334 333 337 339 338 343 343 329 324 336 345 333 330 342 338 323 321 325 325 323 324 324 325 326 327 326 326 326 326 326 326 327 327 327 327 327 326 326 326 326 325 324 323 323 323 322 322
326 323 325 327 327 330 335 336 336 337 335 333 333 333 334 334 332 331 337 341 336 335 344 342 329 325 327 322 321 330 332 324 323 326 325 324 325 324 325 325 326 325 326 326 326 326 326 326 327 327 327 327 327 327 326 324 323 323 321 320 320 320 320
Wind_Speed
3 2 3 3 3 2 2 2 2 3 3 7 5 2 1 4 2 2 2 2 4 4 4 4 4 1 3 6 8 10 11 10 9 9 9 9 9 8 7 7 6 7 9 10 13 17 17 15 13 11 9 7 5 5 5 6 8 9 9 9 9 10 10
2 1 4 6 4 3 5 3 5 4 3 5 5 2 3 5 1 3 2 3 5 3 2 5 4 1 4 5 7 8 9 10 11 11 10 10 10 8 7 6 6 7 10 11 14 17 17 15 13 11 9 6 6 6 7 7 8 9 9 9 10 10 10
1 4 5 5 5 4 4 5 4 4 4 2 2 3 2 2 1 3 4 3 3 2 3 5 3 6 7 6 6 8 10 12 12 11 11 11 10 7 6 6 5 6 10 12 15 17 17 15 13 11 8 7 7 8 8 9 9 8 8 9 10 10 10
2 4 3 2 1 5 5 4 3 3 3 4 2 2 3 3 2 2 4 4 3 5 6 5 7 9 9 9 8 10 13 14 13 12 12 11 10 8 7 7 6 7 10 14 17 18 18 16 14 11 9 9 10 9 9 10 9 8 9 10 10 9 9
1 1 2 6 6 3 3 2 1 1 2 2 2 1 2 3 4 3 1 2 5 7 5 7 10 9 10 12 12 12 12 13 13 12 12 11 10 8 7 7 7 7 11 14 16 17 17 16 14 12 12 12 11 11 11 10 9 9 9 10 9 9 9
3 4 5 5 7 6 6 5 4 4 4 4 3 1 2 1 3 4 4 2 8 7 4 7 8 7 10 12 12 11 10 12 13 12 12 11 10 9 8 8 7 8 11 14 16 16 16 16 16 14 14 14 13 12 12 10 9 9 10 10 9 8 9
5 6 7 2 4 5 6 3 3 5 4 5 6 3 4 0 2 2 4 2 7 6 4 5 6 5 8 10 10 10 9 11 12 12 10 9 7 8 8 8 8 10 13 14 16 16 15 16 16 16 17 16 15 13 12 11 11 10 10 10 9 8 9
4 5 5 3 4 5 5 1 2 5 3 3 5 4 4 4 2 2 2 2 7 6 3 3 4 5 6 7 9 10 9 9 10 10 8 7 7 7 7 7 7 9 10 11 14 15 15 16 18 19 19 17 15 14 12 12 11 10 10 9 9 9 9
4 5 5 5 4 1 3 1 1 3 5 6 4 2 3 2 4 5 4 4 7 6 4 4 3 4 6 7 8 9 9 8 8 8 7 7 8 7 8 7 6 6 7 10 13 15 16 18 20 20 19 17 15 14 13 12 11 10 10 9 10 10 10
3 3 3 3 3 1 1 1 2 2 5 7 4 3 4 2 3 4 5 5 7 7 6 5 4 4 7 8 7 7 8 7 7 7 7 8 8 9 10 8 7 6 7 9 13 15 17 19 21 21 20 18 15 14 13 12 11 10 10 10 11 11 11
8 8 7 6 3 3 2 2 3 3 3 5 5 5 4 5 4 3 6 6 4 9 8 5 5 7 9 9 9 9 9 7 7 7 7 8 8 9 9 8 7 6 6 8 13 16 19 20 21 21 19 17 14 13 13 12 11 10 10 11 12 12 12
7 7 4 2 3 4 5 5 4 3 3 5 6 4 4 5 5 5 9 6 5 8 9 8 9 9 9 10 11 11 10 8 8 8 8 8 8 8 8 8 8 8 7 8 11 16 19 20 20 20 17 15 13 13 13 12 11 10 11 11 12 12 13
1 2 2 1 2 2 3 6 5 4 5 6 6 6 6 7 6 8 7 7 8 9 8 10 11 10 11 12 9 6 5 6 8 9 10 10 10 9 9 8 8 9 8 8 11 16 19 19 19 18 16 13 13 14 15 13 12 11 11 12 12 12 13
3 1 3 2 2 2 2 3 5 5 6 8 8 6 6 8 7 8 4 6 9 9 9 11 9 7 8 6 4 4 6 8 10 11 12 12 11 11 10 9 8 9 9 9 12 16 17 18 18 17 15 14 14 16 16 15 13 12 11 12 12 12 13
2 2 1 2 2 4 4 3 3 3 3 5 5 4 3 4 6 8 3 4 8 9 9 9 6 3 5 5 6 8 8 10 11 12 12 13 12 11 10 9 8 8 8 8 11 14 17 19 19 16 15 15 15 16 17 16 15 13 12 12 12 12 13
4 4 2 1 3 2 1 4 6 5 3 4 4 3 5 5 4 4 2 3 7 7 4 4 4 3 7 8 9 8 7 10 13 14 14 13 12 11 10 9 9 9 8 9 12 16 19 20 18 16 15 16 17 18 18 17 16 14 13 13 13 14 14
4 5 1 2 4 2 3 6 7 7 4 4 2 2 5 6 5 4 4 6 7 5 2 3 4 5 7 9 9 8 9 11 12 13 14 14 13 12 11 10 10 10 11 13 17 20 21 19 17 16 17 18 18 18 17 17 15 15 15 15 15 16 15
4 5 4 4 1 3 6 6 6 7 5 6 5 5 8 7 5 4 5 6 6 5 4 6 7 6 6 6 7 8 9 11 12 12 13 14 13 11 10 10 10 10 13 17 20 23 22 18 16 16 17 19 19 18 16 16 15 15 16 16 17 18 17
2 2 5 2 5 7 6 6 4 3 3 6 7 6 8 8 7 6 7 10 10 7 6 5 5 6 5 4 2 5 7 10 13 13 12 11 11 10 9 8 9 11 15 18 20 21 20 17 17 18 19 20 19 18 17 17 16 17 18 18 19 19 19
2 2 3 4 7 6 6 7 3 2 1 2 3 5 8 7 8 6 7 10 8 5 5 5 4 5 3 3 1 3 4 7 10 12 12 11 10 10 11 12 13 17 21 23 23 22 19 18 19 20 21 21 21 20 19 18 18 18 19 19 20 20 19
3 3 3 3 4 5 6 5 3 4 3 5 5 3 7 7 7 8 6 7 5 3 3 3 3 3 3 4 3 2 4 6 8 9 10 12 12 12 15 18 21 24 28 27 24 21 19 19 21 22 22 22 22 22 20 19 20 20 20 20 21 20 18
3 4 0 3 3 4 6 8 8 4 3 7 7 3 5 7 6 8 7 6 5 4 3 4 4 4 5 2 5 4 4 6 6 5 4 8 12 14 17 19 19 21 25 25 22 20 20 22 23 23 24 24 24 23 22 21 21 21 21 22 22 20 19
2 4 3 3 4 5 7 10 10 5 4 7 7 3 6 7 6 7 7 6 6 6 5 6 5 5 2 4 6 4 6 6 6 5 4 6 11 14 17 19 20 21 23 23 21 21 22 24 25 25 25 25 24 24 23 22 21 21 21 21 21 20 19
3 4 3 3 4 5 7 10 8 3 5 6 4 2 7 7 5 6 8 8 7 7 7 6 6 5 5 6 5 4 6 5 5 7 7 8 11 13 16 20 21 21 22 22 21 22 24 26 26 26 25 24 23 23 22 21 20 20 20 20 19 17 16
4 4 3 3 4 6 7 8 6 4 5 4 3 7 7 6 6 6 8 8 8 8 8 6 5 5 5 4 3 3 6 5 5 6 9 11 14 17 19 21 21 21 23 25 26 26 28 28 27 25 24 22 22 22 20 19 20 19 19 18 16 14 14
3 4 4 3 5 7 7 5 3 3 4 3 7 7 5 5 7 7 6 7 8 8 8 7 5 5 4 2 1 4 7 7 6 6 7 9 12 14 16 18 21 22 23 25 27 28 29 27 24 22 20 19 20 19 18 19 20 19 17 16 14 13 14
2 2 2 1 4 7 4 5 3 2 4 6 6 4 2 3 6 7 6 7 8 8 7 5 4 4 3 1 2 4 5 5 6 6 8 10 11 14 15 17 21 24 23 23 26 27 25 23 20 17 16 17 17 17 17 19 18 16 15 15 14 14 15
3 3 3 4 5 6 4 3 4 5 6 5 5 6 4 3 5 6 6 6 7 9 9 7 4 3 3 2 3 5 4 4 5 5 7 9 12 15 18 20 22 23 22 22 24 24 20 18 16 15 15 15 15 15 17 18 16 14 14 15 15 15 16
3 5 6 6 4 5 5 4 5 6 6 4 4 6 6 4 5 5 6 7 7 7 7 6 4 4 4 3 4 4 3 4 4 4 5 9 12 14 17 18 18 20 22 21 20 19 18 15 14 14 14 14 13 14 16 17 15 14 14 14 15 16 17
4 4 4 3 5 6 6 5 5 5 4 3 2 4 4 4 4 3 4 7 8 7 6 6 4 3 4 3 2 2 1 2 3 3 5 9 12 14 15 15 15 17 18 17 16 17 16 15 15 15 15 14 14 15 16 16 14 14 14 14 15 16 17
3 3 4 4 5 6 6 6 4 3 1 2 1 2 3 4 4 4 4 6 8 6 6 7 6 3 3 4 2 2 2 3 4 4 5 8 11 13 15 15 15 15 15 15 15 16 16 16 16 16 15 15 15 16 16 15 14 14 14 13 14 15 15
1 5 7 7 6 7 6 5 3 2 0 1 2 2 3 5 5 4 4 6 7 6 5 6 7 5 3 4 3 2 3 4 4 3 5 7 8 10 12 12 12 14 15 15 16 16 17 17 17 16 16 16 16 17 15 13 13 13 13 12 12 13 14
3 5 6 6 6 7 6 4 4 5 4 2 5 4 5 7 7 6 5 4 4 6 6 6 8 6 3 4 4 3 4 3 3 3 4 4 5 7 8 8 10 13 14 15 16 16 17 16 15 15 16 15 15 15 13 11 11 12 11 10 11 12 13
4 4 4 3 3 4 6 5 5 6 5 5 7 6 6 8 8 7 7 5 4 5 5 5 7 8 5 4 4 3 2 1 2 4 4 3 5 7 7 8 10 11 11 12 13 14 14 13 13 13 15 15 15 13 11 9 9 9 9 10 12 13 12
6 8 7 4 2 4 7 6 6 6 4 5 8 8 7 7 7 8 9 8 5 4 3 2 6 7 5 4 4 3 2 1 1 2 2 3 5 6 7 8 8 8 8 9 9 11 12 11 11 12 12 12 12 11 8 6 6 6 7 9 11 12 13
6 8 8 4 5 7 8 6 6 5 3 3 6 6 6 6 6 6 8 8 7 5 3 1 4 7 7 6 6 5 4 3 3 3 3 3 4 5 6 7 7 7 7 6 7 8 9 9 10 11 11 11 11 8 5 4 4 4 5 7 9 13 15
5 9 8 4 6 8 7 2 3 3 2 2 3 4 6 6 6 6 7 7 7 8 7 4 4 6 7 7 5 5 4 3 3 4 4 4 4 5 5 6 6 5 4 4 5 6 7 9 10 11 11 9 7 5 4 4 4 6 8 10 13 17 18
Wind_Direction
72 125 162 96 76 142 140 102 151 205 166 118 119 170 105 67 93 256 276 269 298 321 291 304 6 21 179 178 179 177 183 183 177 191 199 202 210 209 205 206 208 201 190 188 187 180 174 174 178 185 195 207 228 258 279 286 294 306 314 312 305 300 304
35 57 111 68 45 129 130 156 187 175 130 96 100 118 21 45 123 270 319 276 294 347 305 305 352 82 180 184 182 176 177 181 189 200 200 203 209 203 199 203 202 195 189 192 193 187 182 182 187 193 199 215 236 255 269 273 283 296 306 309 302 300 305
290 16 74 60 19 48 115 158 151 117 135 138 69 110 135 98 195 286 318 305 274 206 226 278 274 203 194 192 183 177 183 188 195 201 201 206 206 195 193 197 195 192 194 198 197 191 187 188 193 197 205 224 238 250 259 264 274 285 297 302 296 296 302
280 23 71 152 4 27 52 73 46 42 131 154 156 143 153 156 158 263 304 328 282 225 216 222 229 214 187 179 188 193 194 194 196 198 198 203 202 193 190 191 191 193 199 204 200 194 191 191 194 200 213 228 236 245 250 256 267 278 290 291 286 291 297
208 162 194 186 170 128 84 73 19 5 91 126 151 106 100 132 142 172 233 307 271 250 210 199 226 219 185 183 192 198 199 196 197 198 197 200 198 190 186 186 187 196 204 207 203 198 195 194 198 206 220 230 235 240 244 250 261 272 281 280 276 287 296
182 237 263 207 176 162 147 161 181 159 137 125 113 2 310 92 127 165 164 233 266 259 203 209 229 208 190 195 194 196 202 199 199 201 200 198 190 182 182 182 184 195 203 204 201 199 196 196 202 212 223 229 233 236 240 247 255 264 272 272 272 286 300
210 259 282 218 154 137 123 129 151 141 132 121 126 195 248 124 78 134 127 211 266 262 221 228 243 211 197 199 193 197 205 202 202 203 198 188 181 179 178 177 187 199 202 198 195 195 197 199 208 218 225 229 233 237 240 245 252 262 269 269 273 284 295
302 307 324 20 60 89 103 73 123 137 138 131 143 175 178 151 160 145 115 258 268 277 279 263 257 220 193 194 197 200 205 206 205 199 186 172 171 173 173 180 192 195 191 189 190 193 197 204 213 220 225 229 233 237 240 243 252 266 271 269 273 278 286
346 341 349 349 345 41 136 160 101 121 110 109 116 112 115 174 210 156 147 238 255 272 316 329 285 211 190 204 206 200 203 204 198 190 179 171 169 168 175 182 183 178 176 182 189 194 199 208 217 222 225 228 232 236 239 244 256 271 275 271 270 273 280
176 203 243 251 246 223 175 118 122 128 119 128 143 112 113 223 234 148 161 225 260 286 311 325 294 225 214 220 211 210 215 202 189 184 176 171 170 173 179 179 175 177 181 187 191 196 204 213 219 222 223 226 230 235 237 243 258 273 277 270 265 267 275
182 183 209 222 158 140 187 160 145 162 139 125 116 106 145 189 168 178 218 210 259 292 286 275 257 228 224 223 208 210 213 194 184 183 175 173 175 178 178 174 173 176 181 190 196 201 210 217 220 220 221 224 228 233 239 247 258 268 274 267 260 261 269
198 179 197 216 124 148 187 167 151 176 157 120 118 155 198 155 129 260 253 199 208 264 260 248 240 225 226 227 216 213 206 188 177 169 164 170 176 177 172 169 175 181 186 194 199 207 215 219 219 218 218 223 229 237 245 252 254 260 265 260 256 257 264
199 192 313 352 113 134 172 168 167 165 161 163 177 206 198 153 172 249 242 180 205 244 253 248 235 216 219 222 215 210 190 167 160 157 163 174 178 177 176 180 186 188 189 193 200 210 216 216 213 212 214 222 232 241 248 251 250 253 256 255 255 257 261
85 268 289 257 153 126 160 204 195 167 170 189 201 221 204 181 218 256 226 192 232 248 246 250 245 218 215 212 180 166 165 163 164 167 172 178 180 180 182 187 191 190 191 194 201 209 212 210 208 208 215 225 234 243 250 251 248 248 250 253 258 261 263
356 311 210 173 161 170 191 257 261 197 180 196 213 238 201 186 252 272 247 227 260 260 242 253 266 201 174 176 183 187 179 169 170 173 177 180 181 183 187 188 187 191 194 196 202 208 209 208 207 209 219 229 236 245 251 250 247 247 249 254 260 263 265
280 294 147 115 19 89 162 305 278 240 207 193 208 209 182 180 215 246 245 239 257 265 252 261 273 197 180 195 198 188 177 173 173 177 181 182 181 183 187 186 184 190 195 197 204 209 209 207 207 213 223 229 235 243 249 249 247 246 249 255 261 264 266
257 283 24 35 19 34 299 278 234 203 191 201 225 246 220 203 171 175 219 231 241 263 267 243 243 213 206 213 200 183 180 180 180 181 179 178 182 187 189 187 186 190 196 200 204 207 207 206 210 220 226 228 234 242 248 250 248 247 250 256 260 264 268
249 284 17 38 348 235 248 247 191 165 172 190 202 240 239 220 189 198 240 253 259 264 235 222 222 215 227 236 212 194 181 172 176 183 182 180 182 187 189 185 187 193 198 203 207 207 206 208 216 225 228 230 236 243 248 251 250 249 251 255 260 264 269
198 330 53 74 238 230 245 271 245 201 199 182 191 243 256 234 225 243 260 265 266 256 235 239 247 247 275 306 231 200 189 178 176 178 180 181 180 183 186 185 192 198 196 200 206 206 207 212 219 225 228 231 235 241 245 249 250 251 253 256 261 265 270
145 91 111 193 241 257 286 298 269 178 212 186 197 283 281 243 212 207 234 254 261 251 249 268 261 237 262 6 48 182 188 182 175 170 174 181 182 182 186 188 194 197 197 198 201 202 207 214 220 226 229 230 232 237 243 246 249 253 256 258 262 265 270
153 150 192 243 288 305 306 287 218 169 189 187 172 242 275 253 203 181 211 251 244 206 235 253 209 158 82 22 334 245 174 174 182 179 176 179 183 187 191 194 197 197 198 199 198 201 209 216 221 227 230 229 230 235 241 245 249 253 255 258 264 268 271
110 109 225 295 289 271 258 247 247 250 202 167 144 151 272 271 225 191 201 227 204 163 159 193 179 104 69 348 282 246 185 181 189 188 171 177 187 191 190 192 197 200 199 198 199 205 213 219 224 229 230 228 228 232 239 245 250 252 254 259 266 272 274
105 130 189 222 222 237 241 242 254 264 179 145 107 53 289 270 229 194 191 201 191 169 167 173 152 104 100 253 261 228 190 184 181 179 173 178 191 196 192 189 193 199 199 199 203 209 215 222 227 228 229 228 226 229 238 246 250 252 255 262 272 280 282
161 159 200 235 233 243 246 246 251 233 157 136 103 302 273 257 219 185 181 189 187 174 170 165 145 140 177 229 250 208 172 166 175 184 183 179 184 191 195 198 199 199 197 199 205 211 217 224 228 229 228 225 223 229 239 246 249 253 259 270 281 288 287
174 175 214 264 261 246 246 247 237 171 127 128 200 227 237 225 202 189 182 181 178 170 166 165 174 187 201 222 224 150 140 149 177 192 192 189 187 188 193 200 201 199 199 203 209 216 221 225 228 228 225 221 222 231 239 245 250 259 267 276 284 285 279
159 174 207 277 289 254 223 206 205 156 136 192 225 223 218 193 180 182 182 172 169 175 176 174 187 206 227 247 189 144 151 162 171 180 184 186 191 195 197 200 200 200 202 207 213 220 224 225 227 226 221 218 224 231 238 247 257 268 274 277 278 277 272
143 126 172 250 280 262 212 141 133 203 202 211 210 194 204 193 167 164 175 176 173 175 180 193 214 213 215 234 153 150 165 165 159 172 181 182 190 196 197 201 204 203 204 210 216 222 224 224 225 222 216 216 223 231 241 255 268 277 279 277 272 266 265
137 141 200 215 226 249 253 171 181 219 228 212 176 153 163 198 181 167 169 180 183 176 172 180 196 187 182 178 149 154 181 184 167 176 192 195 200 201 201 205 207 205 207 213 218 222 224 223 221 216 212 215 221 232 250 265 276 282 282 281 274 264 260
182 185 217 240 246 255 264 241 222 247 270 256 188 169 165 177 194 186 168 169 175 171 161 152 146 163 181 177 162 165 191 197 183 189 214 217 216 214 214 216 215 211 213 216 219 221 220 217 213 210 210 215 223 239 259 271 279 284 288 288 282 273 265
274 248 236 282 301 285 280 276 250 249 277 292 222 181 159 152 162 166 157 157 160 163 159 145 146 185 182 158 177 218 255 249 227 229 243 238 231 226 226 228 226 220 218 218 219 219 215 209 207 208 210 217 231 249 264 272 281 290 294 293 290 284 274
319 285 275 302 299 281 289 306 291 246 244 321 304 181 164 146 134 129 130 139 145 155 158 146 144 161 145 128 157 255 285 274 253 238 240 241 235 232 234 235 230 219 212 212 213 214 212 206 204 206 211 222 240 255 265 272 281 288 290 291 297 297 289
216 246 267 288 286 273 274 280 274 261 291 39 51 99 130 121 112 111 114 126 137 142 144 138 128 124 141 148 154 216 258 265 259 249 252 255 248 243 241 238 227 215 208 208 209 212 214 209 204 207 217 231 246 258 265 271 276 282 286 290 300 310 308
297 279 289 307 313 308 305 291 260 245 222 129 87 90 112 112 109 104 92 89 122 137 144 141 124 124 170 186 166 187 224 242 261 263 265 262 245 237 235 227 217 212 213 213 213 216 219 213 206 212 225 239 252 260 265 270 274 275 281 291 303 312 314
307 275 258 264 292 294 285 272 246 228 208 145 119 123 129 126 129 126 105 73 59 97 128 141 130 135 173 196 177 187 215 284 307 286 270 227 198 196 201 205 207 211 216 217 217 220 222 218 215 224 237 248 259 264 266 271 272 270 280 298 305 306 310
253 258 254 236 234 265 261 244 219 221 223 161 142 147 149 145 146 139 127 115 94 83 87 131 139 141 157 175 163 143 117 122 191 239 236 200 172 168 174 181 186 196 204 209 216 224 227 228 233 243 254 267 277 280 272 261 263 273 289 301 302 304 313
253 281 276 231 217 255 260 235 206 214 230 182 151 142 139 146 152 145 136 135 137 132 114 107 146 145 152 171 167 141 136 160 160 150 171 180 164 161 169 174 180 191 203 215 231 240 247 256 262 269 282 293 294 286 261 241 261 289 298 300 300 301 303
254 290 293 252 228 251 263 241 193 211 214 186 164 148 145 156 164 155 142 138 143 145 140 145 164 154 151 162 157 129 128 152 159 162 172 173 173 182 190 192 199 207 222 244 266 278 284 287 287 289 292 291 277 256 239 249 283 299 296 292 290 288 287